Regional Weather Roundup
Issued by NWS Mobile, AL

Home | Current Version | Previous Version | Text Only | Print | Product List | Glossary On
Versions: 1 2 3 4 5 6 7 8 9 10 11 12 13 14 15 16 17 18 19 20 21 22 23 24 25 26 27 28 29 30 31 32 33 34 35 36 37 38 39 40 41 42 43 44 45 46 47 48 49 50
000
ASUS44 KMOB 121412
RWRMOB
REGIONAL WEATHER ROUNDUP
NATIONAL WEATHER SERVICE MOBILE AL
800 AM CST FRI FEB 12 2016

NOTE: "FAIR" INDICATES FEW OR NO CLOUDS BELOW 12,000 FEET WITH NO
      SIGNIFICANT WEATHER AND/OR OBSTRUCTIONS TO VISIBILITY.

  * THESE STATIONS ARE PART OF THE UNIVERSITY OF SOUTH ALABAMA
    MESONET AND ARE NOT UNDER NWS OR FAA QUALITY CONTROL.

ALZ061>064-121500-
COASTAL ALABAMA

CITY           SKY/WX    TMP DP  RH WIND       PRES   REMARKS
MOBILE REG APT MOSUNNY   59  58  96 SW9       30.23R
BROOKLEY FIELD MOSUNNY   62  56  80 W9G16     30.24R
USA CAMPUS*    NOT AVBL
DOG RIVER*     NOT AVBL


CITY           SKY/WX    TMP DP  RH WIND       PRES   REMARKS
MOUNT VERNON*  NOT AVBL
SARALAND*      NOT AVBL
BAY MINETTE*   NOT AVBL
LOXLEY*        NOT AVBL
ROBERTSDALE*   NOT AVBL
FAIRHOPE*      NOT AVBL
ELBERTA*       NOT AVBL
FOLEY*         NOT AVBL
GRAND BAY*     NOT AVBL
DAUPHIN ISLND* NOT AVBL
BON SCOUR NWR* NOT AVBL
GULF SHORES    CLOUDY    57  57 100 W12G21    30.24R

$$

ALZ051>060-121500-
INTERIOR SOUTHWEST AND SOUTH CENTRAL ALABAMA

CITY           SKY/WX    TMP DP  RH WIND       PRES   REMARKS
GREENVILLE     CLOUDY    56  53  90 W9        30.14R
EVERGREEN      PTSUNNY   58  54  86 SW13G20   30.18R
CASTLEBERRY*   NOT AVBL
ATMORE*        NOT AVBL
DIXIE*         NOT AVBL
ANDALUSIA/OPP  CLOUDY    60  54  80 W9G16     30.18R
ANDALUSIA*     NOT AVBL
FLORALA APT    CLOUDY    57  54  89 VRB5      30.20S
FLORALA*       NOT AVBL

$$

FLZ001>006-121500-
WESTERN FLORIDA PANHANDLE

CITY           SKY/WX    TMP DP  RH WIND       PRES   REMARKS
PENSACOLA      PTSUNNY   61  57  87 W15G23    30.22R
NAS PENSACOLA  PTSUNNY   61  56  83 W8        30.22R
MILTON         MOSUNNY   59  56  89 W12G22    30.21R
WHTNG S FIELD  MOSUNNY   62  56  80 W8G20     30.21R


CITY           SKY/WX    TMP DP  RH WIND       PRES   REMARKS
WALNUT HILL*   NOT AVBL
JAY*           NOT AVBL
DUKE FIELD     MOSUNNY   60  56  84 W10       30.19S
CRESTVIEW      SUNNY     59  56  89 W9        30.21S
VALPARAISO     NOT AVBL
DESTIN         SUNNY     63  58  83 VRB6      30.22R

$$

MSZ076-079-121500-
INTERIOR SOUTHEAST MISSISSIPPI

CITY           SKY/WX    TMP DP  RH WIND       PRES   REMARKS
LEAKESVILLE*   NOT AVBL
AGRICOLA*      NOT AVBL

$$

MARINE OBSERVATIONS

STATION/POSITION TIME  TEMP    WIND        PRES    WAVE
                       AIR SEA DIR/SP/G            HT/PER
                 (UTC) (F)     (DEG/KT/KT) (MB)    (FT/S)
PASCAGOULA       1300   56     250/  4/  6 1023.7R
PETIT BOIS ISLND 1300   67     280/  5/  6 1024.6R
GRAND BAY        1200   55     290/  4     1024.0R
KATRINA CUT      1300   55     270/ 12       N/A
CEDAR POINT      1300   55     280/ 10     1023.4R
E DAUPHIN ISLAND 1400   60     270/ 11/ 14 1023.7R
MIDDLE BAY LIGHT 1300          260/ 13     1023.0R
USCG MOBILE BAY  1300   60 54  270/  8/ 12 1023.6R
STATE DOCKS      1300   59 52              1022.9R
MEAHER PARK      1300   59     250/  9     1023.4R
WEEKS BAY        1200   57                   N/A
FORT MORGAN      1300   59     280/ 17/ 18 1023.1R
12 S ORANGE BCH  1350   64 64  260/ 19/ 23 1022.9R   4/ 5
PENSACOLA BAY    1300   62 51  280/  9/ 13 1023.1R

$$

SELECTED LOCATIONS ACROSS THE REGION

CITY           SKY/WX    TMP DP  RH WIND       PRES   REMARKS
NEW ORLEANS    MOSUNNY   61  56  83 SW8       30.25R
GULFPORT       CLOUDY    59  57  93 W6        30.24R FOG
PASCAGOULA AP  PTSUNNY   60  57  89 VRB6      30.24R
PASCAGOULA*    NOT AVBL
HATTIESBURG    MOSUNNY   59  54  83 W7        30.21S
LAUREL         MOSUNNY   57  48  72 SW7       30.20S
MERIDIAN       CLOUDY    44  40  85 CALM      30.19R
JACKSON        CLOUDY    50  44  80 W7        30.21R
MONTGOMERY     CLOUDY    46  36  68 CALM      30.16R
TROY           CLOUDY    56  54  93 SW8       30.15R
KINSTON*       NOT AVBL
GENEVA*        NOT AVBL
ASHFORD*       NOT AVBL
DOTHAN         CLOUDY    57  54  89 W12       30.20R
PANAMA CITY    CLOUDY    64  58  80 SW17G23   30.21R

$$




USA.gov is the U.S. government's official web portal to all federal, state and local government web resources and services.